Погода в Велварах

Чехия     50°16′51″N   14°14′10″E
темп.,
°C
ветер,
м/с
пор.,
м/с
влажн.,
%
обл.,
%
осадки,
мм/ч
давл.,
гПа
погр.,
м
7 мая, пт
пт723:00+6зюз3992100 3.5 1006868
02:00+7юв2795100 6.6 1004418
05:00+7з61093100 0.2 1004480
08:00+6зсз5108757 0.3 1007734
11:00+8зсз6876100 0.4 10091190
14:00+10сз8105993 1.1 10101994
17:00+10сз6957100 0.3 10121768
20:00+5з611835 1.3 1016383
8 мая, сб
сб823:00+2зюз48885 0.0 1019119
02:00+2зюз48895 0.0 1020141
05:00+1зюз35885 0.0 102177
08:00+6зюз47755 0.0 1022282
11:00+11зюз455284 0.0 10211732
14:00+13юз3543100 0.0 10192119
17:00+14ююз344185 0.0 10182107
20:00+10ю335995 0.0 101828
9 мая, вс
вс923:00+7ююв336097 0.0 101831
02:00+5юв227027 0.0 101814
05:00+4вюв11815 0.0 101712
08:00+8вюв23727 0.0 1017222
11:00+16юв46547 0.0 1015720
14:00+20юв674975 0.0 10131188
17:00+20юв675827 0.0 10121155
20:00+14вюв5117332 0.0 1012277
10 мая, пн
пн1023:00+11вюв410765 0.0 1012230
02:00+9вюв49795 0.0 1011187
05:00+7вюв35848 0.0 101172
08:00+11юв47755 0.0 1011432
11:00+17юв46630 0.0 1010729
14:00+22ююв34535 0.0 10101238
17:00+23вюв445660 0.0 10101245
20:00+18вюв368198 0.0 1010104
11 мая, вт
вт1123:00+14в4109595 0.0 1009222
02:00+12в399698 0.0 1008193
05:00+12вюв3896100 0.0 1007161
08:00+15ююв238698 0.0 1008320
11:00+17зюз2277100 0.0 1008876
14:00+18с117697 0.1 1007553
17:00+20св447396 0.0 1005857
20:00+17с3790100 0.7 1003140